Showing default

COSMOS 2504, 40555

Orbit data source: Space-Track

COSMOS 2504, 40555 is a payload satellite owned by TsNIIKhM (CIS) in LEO that was launched on Tue, 31 Mar 2015 UTC via an ROKOT launch vehicle from the Plesetsk Missile And Space Complex (PKMTR). Payload-class satellites include a variety of spacecraft equipped with specific instruments for various scientific and technological missions. These include communications satellites like Starlink; space stations such as the ISS; scientific satellites like the Hubble; Earth observation satellites from companies like Planet Labs, Umbra, and HawkEye 360; GPS; miniature CubeSats for education and research; and military/defense satellites.

Loading next visibility...
Identifier
40555, 2015-020D
Orbit
LEO
Last TLE update
7 hours ago
Origin
Manufacturer
TsNIIKhM
Mission
Operational Defense Technology
Bus & Motor
NIVELIR, Unknown motor
Mass
~100 kg wet, ~100 kg dry
Launch date (UTC)
2015-03-31 (10 years ago)
Launch vehicle
ROKOT
Launch site
Plesetsk Missile And Space Complex (PKMTR)
Object type
Payload
Rocket body
Debris
Shape & HBR
Hex Cyl + 1 Ant, 1 m
Radar Cross Section
0.352 m², Medium (>0.1 m² and < 1m²)

Expand to show TLE details & history

TLE from 7 hours ago
0 COSMOS 2504
1 40555U 15020D   25182.13622208  .00000217  00000-0  71961-4 0  9997
2 40555  82.5173 142.5655 0609721 148.2120 215.7406 13.61045678502438
Epoch: 2025-07-01T03:16Z
TLE epoch observation values (Epoch: 2025-07-01T03:16:09.587Z)
Latitude
-0.00007°
Longitude
174.08954°
Altitude
1,410.318 km
Speed
6.972 km/s
True Right ascension
09h 30m 15s
True Declination
0° 00' 00"
Sunlit
Object was in daylight at epoch
Visualization orbit readout
Latitude
-34.59387°
Longitude
168.69625°
Altitude
1,496.472 km
Speed
6.894 km/s
Apparent Right ascension
09h 24m 58s
Apparent Declination
-36° 54' 06"
Sunlit
Object is in daylight
Visualization observer readout
Local Sidereal Time
21:46:33
Azimuth
56.213° ENE
Elevation
-84.809°
Doppler factor
1
Orbital elements
Apogee altitude
1,480.696 km
Perigee altitude
577.431 km
Semi-major axis
7,407.2 km
Eccentricity
0.06097
Inclination
82.5173°
RAAN
142.5655°
Arg. of periapsis
148.212°
True anomaly
Unknown
Mean anomaly
215.7406°
Eccentric anomaly
Unknown
Mean motion
3.40457 °/min
Orbital period
105.74 mins
BSTAR
0.000071961
Loading maneuver chart data...
Loading SW <> Apogee altitude chart data...
Loading historical data...
Loading historical data...
Loading historical data...
Loading historical data...
Loading historical data...
Loading historical data...
Loading historical data...

COSMOS 2504 Visibility forecast

Observer location: undefined°, undefined°

Span
Click to sort rows by Start time (UTC) header in descending order
Start Az.
Max El. time (UTC)
Max El. Az.
Max El.
End time (UTC)
End Az.
11 mins2025-07-01 21:01:09.351Z144.416° SSE2025-07-01 21:07:09.351Z89.221° E26.827°2025-07-01 21:12:09.351Z33.713° NE
11 mins2025-07-01 22:48:09.351Z214.981° SW2025-07-01 22:53:09.351Z269.556° W35.554°2025-07-01 22:59:09.351Z351.951° N
5 mins2025-07-02 09:54:09.351Z313.702° NW2025-07-02 09:56:09.351Z263.745° W27.599°2025-07-02 09:59:09.351Z209.231° SW
|